Location: Prairie Dale
(45.6972°N, 104.5033°W)
Time: 06:15:31
(UTC+00:00)

SEEDS - Pass Details

Date: 06 July 2022
Orbit: 579 x 598 km, 97.6° (Epoch: 09 August)

Event Time Altitude Azimuth Distance (km) Brightness Sun altitude
Rises 10:25:32 0° 25° (NNE) 2,811 ? -7.6°
Reaches altitude 10° 10:28:02 10° 39° (NE) 1,904 ? -7.3°
Maximum altitude 10:31:24 24° 94° (E) 1,221 ? -6.9°
Drops below altitude 10° 10:34:45 10° 149° (SSE) 1,891 ? -6.4°
Sets 10:37:13 0° 163° (SSE) 2,786 ? -6.1°
